| time (UTC) | temp F | wind direction | speed MPH | gust MPH | rain 1hr in | rain 24hr in | rain mn in | humidity % | barometer mb |
| 20260510113154 | 49 | 184 | 0.0 | 1.0 | 0.00 | 0.00 | 0.00 | 86 | 1017.5 |
| 20260510111601 | 50 | 183 | 0.0 | 2.0 | 0.00 | 0.00 | 0.00 | 84 | 1017.3 |
| 20260510110104 | 51 | 222 | 1.0 | 4.0 | 0.00 | 0.00 | 0.00 | 83 | 1017.2 |
| 20260510104559 | 51 | 209 | 3.0 | 7.0 | 0.00 | 0.00 | 0.00 | 84 | 1017.2 |
| 20260510103152 | 51 | 172 | 2.0 | 6.0 | 0.00 | 0.00 | 0.00 | 84 | 1017.2 |
| 20260510101505 | 51 | 214 | 1.0 | 4.0 | 0.00 | 0.00 | 0.00 | 84 | 1017.1 |
| 20260510100112 | 51 | 208 | 2.0 | 5.0 | 0.00 | 0.00 | 0.00 | 84 | 1017.1 |
| 20260510094601 | 51 | 174 | 1.0 | 5.0 | 0.00 | 0.00 | 0.00 | 84 | 1017.2 |
| 20260510093103 | 51 | 172 | 2.0 | 7.0 | 0.00 | 0.00 | 0.00 | 84 | 1017.1 |
| 20260510091502 | 52 | 193 | 3.0 | 7.0 | 0.00 | 0.00 | 0.00 | 84 | 1017.3 |
| 20260510090117 | 52 | 160 | 2.0 | 6.0 | 0.00 | 0.00 | 0.00 | 84 | 1017.2 |
| 20260510084559 | 52 | 202 | 5.0 | 11.0 | 0.00 | 0.00 | 0.00 | 83 | 1017.1 |
| 20260510083104 | 52 | 208 | 3.0 | 8.0 | 0.00 | 0.00 | 0.00 | 83 | 1017.0 |
| 20260510081602 | 52 | 206 | 3.0 | 12.0 | 0.00 | 0.00 | 0.00 | 83 | 1016.8 |
| 20260510080117 | 52 | 203 | 2.0 | 9.0 | 0.00 | 0.00 | 0.00 | 85 | 1017.0 |
| 20260510074607 | 51 | 181 | 2.0 | 8.0 | 0.00 | 0.00 | 0.00 | 86 | 1016.9 |
| 20260510073055 | 51 | 217 | 2.0 | 8.0 | 0.00 | 0.00 | 0.00 | 87 | 1016.8 |
| 20260510071604 | 51 | 191 | 1.0 | 4.0 | 0.00 | 0.00 | 0.00 | 86 | 1016.8 |
| 20260510064604 | 52 | 229 | 3.0 | 8.0 | 0.00 | 0.00 | 0.00 | 85 | 1017.0 |
| 20260510063057 | 52 | 194 | 3.0 | 7.0 | 0.00 | 0.00 | 0.00 | 85 | 1017.0 |
| 20260510061554 | 52 | 158 | 3.0 | 9.0 | 0.00 | 0.00 | 0.00 | 85 | 1016.8 |
| 20260510060100 | 52 | 188 | 3.0 | 8.0 | 0.00 | 0.00 | 0.00 | 85 | 1016.8 |
| 20260510054543 | 52 | 224 | 0.0 | 3.0 | 0.00 | 0.00 | 0.00 | 84 | 1016.8 |
| 20260510053043 | 52 | 219 | 2.0 | 4.0 | 0.00 | 0.00 | 0.00 | 85 | 1016.7 |
| 20260510051555 | 52 | 201 | 1.0 | 4.0 | 0.00 | 0.00 | 0.00 | 85 | 1016.8 |
| 20260510050050 | 52 | 205 | 2.0 | 7.0 | 0.00 | 0.00 | 0.00 | 85 | 1016.9 |
| 20260510044532 | 52 | 100 | 3.0 | 9.0 | 0.00 | 0.00 | 0.00 | 85 | 1017.0 |
| 20260510043039 | 52 | 229 | 5.0 | 11.0 | 0.00 | 0.00 | 0.00 | 86 | 1017.1 |
| 20260510041549 | 52 | 250 | 3.0 | 8.0 | 0.00 | 0.00 | 0.00 | 87 | 1017.1 |
| 20260510040042 | 53 | 222 | 5.0 | 11.0 | 0.00 | 0.00 | 0.00 | 86 | 1017.0 |
| 20260510034524 | 56 | 197 | 4.0 | 7.0 | 0.00 | 0.00 | 0.00 | 78 | 1016.8 |
| 20260510033030 | 60 | 218 | 2.0 | 5.0 | 0.00 | 0.00 | 0.00 | 66 | 1016.6 |
| 20260510031532 | 62 | 331 | 0.0 | 0.0 | 0.00 | 0.00 | 0.00 | 62 | 1016.6 |
| 20260510030016 | 63 | 331 | 0.0 | 0.0 | 0.00 | 0.00 | 0.00 | 59 | 1016.5 |
| 20260510024523 | 63 | 331 | 0.0 | 2.0 | 0.00 | 0.00 | 0.00 | 58 | 1016.6 |
| 20260510023020 | 63 | 331 | 0.0 | 1.0 | 0.00 | 0.00 | 0.00 | 57 | 1016.6 |
| 20260510021523 | 63 | 304 | 0.0 | 2.0 | 0.00 | 0.00 | 0.00 | 58 | 1016.8 |
| 20260510020009 | 63 | 252 | 0.0 | 2.0 | 0.00 | 0.00 | 0.00 | 59 | 1016.9 |
| 20260510014520 | 63 | 347 | 0.0 | 2.0 | 0.00 | 0.00 | 0.00 | 60 | 1017.1 |
| 20260510013015 | 63 | 341 | 1.0 | 3.0 | 0.00 | 0.00 | 0.00 | 57 | 1017.2 |
| 20260510011528 | 64 | 15 | 2.0 | 5.0 | 0.00 | 0.00 | 0.00 | 57 | 1017.5 |
| 20260510010003 | 64 | 317 | 0.0 | 3.0 | 0.00 | 0.00 | 0.00 | 63 | 1017.7 |
| 20260510004502 | 63 | 309 | 0.0 | 2.0 | 0.00 | 0.00 | 0.00 | 59 | 1018.0 |
| 20260510003006 | 63 | 333 | 0.0 | 2.0 | 0.00 | 0.00 | 0.00 | 60 | 1018.2 |
| 20260510001510 | 63 | 350 | 1.0 | 3.0 | 0.00 | 0.00 | 0.00 | 61 | 1018.4 |
| 20260510000132 | 64 | 319 | 0.0 | 4.0 | 0.00 | 0.00 | 0.00 | 60 | 1018.5 |
| 20260509234608 | 64 | 275 | 1.0 | 5.0 | 0.00 | 0.00 | 0.00 | 60 | 1018.8 |
| 20260509233003 | 64 | 335 | 0.0 | 3.0 | 0.00 | 0.00 | 0.00 | 61 | 1018.8 |
| 20260509231526 | 64 | 335 | 2.0 | 4.0 | 0.00 | 0.00 | 0.00 | 60 | 1019.2 |
| 20260509230003 | 65 | 337 | 1.0 | 4.0 | 0.00 | 0.00 | 0.00 | 63 | 1019.3 |
| 20260509224507 | 64 | 325 | 0.0 | 4.0 | 0.00 | 0.00 | 0.00 | 66 | 1019.5 |
| 20260509223014 | 63 | 317 | 0.0 | 5.0 | 0.00 | 0.00 | 0.00 | 66 | 1019.7 |
| 20260509221526 | 63 | 220 | 0.0 | 5.0 | 0.00 | 0.00 | 0.00 | 67 | 1020.0 |
| 20260509220120 | 62 | 249 | 0.0 | 4.0 | 0.00 | 0.00 | 0.00 | 69 | 1020.3 |
| 20260509214501 | 62 | 239 | 1.0 | 6.0 | 0.00 | 0.00 | 0.00 | 71 | 1020.5 |
| 20260509213006 | 61 | 214 | 2.0 | 5.0 | 0.00 | 0.00 | 0.00 | 69 | 1020.7 |
| 20260509211508 | 62 | 237 | 1.0 | 5.0 | 0.00 | 0.00 | 0.00 | 69 | 1020.7 |
| 20260509210005 | 61 | 233 | 0.0 | 4.0 | 0.00 | 0.00 | 0.00 | 69 | 1020.7 |
| 20260509204506 | 59 | 209 | 2.0 | 6.0 | 0.00 | 0.00 | 0.00 | 73 | 1021.1 |
| 20260509203010 | 59 | 255 | 3.0 | 6.0 | 0.00 | 0.00 | 0.00 | 75 | 1021.4 |
| 20260509201514 | 59 | 255 | 3.0 | 7.0 | 0.00 | 0.00 | 0.00 | 73 | 1021.4 |
| 20260509200121 | 59 | 220 | 2.0 | 5.0 | 0.00 | 0.00 | 0.00 | 72 | 1021.2 |
| 20260509194506 | 60 | 328 | 1.0 | 5.0 | 0.00 | 0.00 | 0.00 | 73 | 1021.2 |
| 20260509193009 | 59 | 215 | 3.0 | 7.0 | 0.00 | 0.00 | 0.00 | 74 | 1021.6 |
| 20260509191512 | 58 | 280 | 3.0 | 7.0 | 0.00 | 0.00 | 0.00 | 74 | 1021.7 |
| 20260509190119 | 58 | 195 | 2.0 | 7.0 | 0.00 | 0.00 | 0.00 | 75 | 1021.8 |
| 20260509184604 | 58 | 230 | 2.0 | 6.0 | 0.00 | 0.00 | 0.00 | 76 | 1021.9 |
| 20260509183004 | 59 | 243 | 3.0 | 5.0 | 0.00 | 0.00 | 0.00 | 75 | 1021.9 |
| 20260509181508 | 59 | 218 | 1.0 | 5.0 | 0.00 | 0.00 | 0.00 | 74 | 1021.9 |
| 20260509180114 | 59 | 340 | 0.0 | 4.0 | 0.00 | 0.00 | 0.00 | 76 | 1022.0 |
| 20260509174601 | 58 | 254 | 0.0 | 5.0 | 0.00 | 0.00 | 0.00 | 75 | 1021.9 |
| 20260509173110 | 59 | 326 | 0.0 | 6.0 | 0.00 | 0.00 | 0.00 | 76 | 1022.1 |
| 20260509171622 | 58 | 328 | 0.0 | 4.0 | 0.00 | 0.00 | 0.00 | 76 | 1022.1 |
| 20260509170011 | 58 | 236 | 0.0 | 5.0 | 0.00 | 0.00 | 0.00 | 75 | 1022.4 |
| 20260509164507 | 57 | 326 | 1.0 | 4.0 | 0.00 | 0.00 | 0.00 | 77 | 1022.3 |
| 20260509163018 | 57 | 349 | 1.0 | 4.0 | 0.00 | 0.00 | 0.00 | 77 | 1022.4 |
| 20260509161520 | 58 | 360 | 0.0 | 3.0 | 0.00 | 0.00 | 0.00 | 78 | 1022.4 |
| 20260509160018 | 57 | 273 | 0.0 | 3.0 | 0.00 | 0.00 | 0.00 | 77 | 1022.5 |
| 20260509154517 | 57 | 298 | 0.0 | 3.0 | 0.00 | 0.00 | 0.00 | 77 | 1022.6 |
| 20260509153021 | 57 | 336 | 0.0 | 2.0 | 0.00 | 0.00 | 0.00 | 76 | 1022.8 |
| 20260509151525 | 57 | 264 | 0.0 | 1.0 | 0.00 | 0.00 | 0.00 | 76 | 1022.7 |
| 20260509150012 | 58 | 274 | 0.0 | 1.0 | 0.00 | 0.00 | 0.00 | 78 | 1022.7 |
| 20260509144516 | 55 | 196 | 0.0 | 0.0 | 0.00 | 0.00 | 0.00 | 86 | 1022.9 |
| 20260509143020 | 52 | 196 | 0.0 | 0.0 | 0.00 | 0.00 | 0.00 | 90 | 1023.0 |
| 20260509141533 | 49 | 196 | 0.0 | 0.0 | 0.00 | 0.00 | 0.00 | 92 | 1022.9 |
| 20260509140010 | 47 | 196 | 0.0 | 0.0 | 0.00 | 0.00 | 0.00 | 92 | 1023.1 |
| 20260509134514 | 47 | 196 | 0.0 | 0.0 | 0.00 | 0.00 | 0.00 | 92 | 1022.9 |
| 20260509133017 | 47 | 196 | 0.0 | 0.0 | 0.00 | 0.00 | 0.00 | 92 | 1023.1 |
| 20260509131520 | 47 | 196 | 0.0 | 0.0 | 0.00 | 0.00 | 0.00 | 92 | 1023.1 |
| 20260509130007 | 46 | 196 | 0.0 | 0.0 | 0.00 | 0.00 | 0.00 | 92 | 1022.9 |
| 20260509124527 | 46 | 196 | 0.0 | 0.0 | 0.00 | 0.00 | 0.00 | 91 | 1023.0 |
| 20260509123029 | 47 | 196 | 0.0 | 0.0 | 0.00 | 0.00 | 0.00 | 91 | 1022.9 |
| 20260509121530 | 47 | 196 | 0.0 | 0.0 | 0.00 | 0.00 | 0.00 | 91 | 1022.9 |
| 20260509120014 | 47 | 196 | 0.0 | 0.0 | 0.00 | 0.00 | 0.00 | 92 | 1023.1 |
| 20260509114517 | 46 | 196 | 0.0 | 0.0 | 0.00 | 0.00 | 0.00 | 92 | 1023.2 |